Dewpoint
60 64 70 70 70 69 69 69 69 69 69 69 69 68 68 67 67 67 67 67 67 67 65 65 64 65 65 64 63 63 62 62 62 62 62 62 62 62 60 60 61 59 60
60 64 70 70 70 69 69 68 68 68 70 69 68 68 67 67 67 67 66 67 67 66 65 65 64 64 64 62 61 60 60 61 62 62 62 62 61 58 61 60 61 60 59
62 64 68 70 70 70 69 69 69 69 70 69 68 68 67 67 68 67 66 66 66 65 65 64 64 63 62 61 60 59 59 58 60 61 60 59 59 61 60 61 60 60 59
63 64 66 70 69 70 69 70 70 70 70 69 69 68 68 67 67 67 66 66 66 65 64 64 64 62 62 61 60 59 59 59 59 59 57 56 57 60 60 60 60 60 59
63 64 66 70 70 70 69 70 70 69 69 69 68 67 67 67 66 66 66 66 66 64 63 63 63 62 61 61 60 59 60 59 58 56 56 56 59 59 58 58 59 57 58
64 65 69 70 70 70 70 70 69 69 69 69 68 67 67 66 65 64 66 65 64 64 62 62 63 61 62 61 60 60 60 59 55 55 57 59 58 59 59 59 58 58 58
64 65 68 70 70 70 70 70 69 69 69 69 68 68 68 66 65 65 65 64 65 64 63 63 62 61 61 60 60 60 59 57 54 54 56 58 58 59 58 58 57 58 57
65 66 67 70 70 70 70 70 69 69 69 68 68 67 68 66 65 65 65 65 65 63 63 62 61 61 61 61 61 60 58 56 53 55 56 55 58 57 55 56 56 56 55
66 66 67 68 69 70 69 69 69 68 68 68 67 66 67 67 66 65 66 65 65 64 63 62 61 61 61 61 61 61 58 56 53 54 54 57 57 56 56 56 56 56 56
66 66 65 66 66 67 67 69 68 67 67 66 65 65 65 66 65 65 66 65 65 65 64 63 61 61 61 61 61 59 57 55 53 53 56 57 58 55 56 56 56 56 55
65 65 65 65 64 65 66 67 67 66 66 65 64 64 63 61 61 60 62 65 65 65 64 62 61 62 62 60 59 57 56 52 52 52 55 57 55 56 56 56 56 55 55
64 65 65 65 64 65 65 66 65 65 64 63 63 62 60 60 60 60 62 64 64 64 63 63 62 60 57 54 55 55 52 51 52 52 55 56 56 56 56 56 56 56 55
64 64 65 65 64 64 64 64 65 64 63 63 62 61 60 60 60 60 60 61 62 61 60 59 58 54 53 53 53 53 52 52 52 52 54 54 55 56 56 56 56 56 55
64 64 65 65 64 64 65 64 64 63 63 62 61 60 59 58 59 58 57 60 60 59 57 55 55 54 53 53 53 52 52 51 51 52 53 54 54 54 56 55 56 55 55
63 64 64 65 64 64 64 64 63 62 62 61 61 60 59 58 59 57 57 57 57 58 56 55 54 53 53 53 53 52 52 52 51 52 53 54 54 55 54 54 55 55 55
62 63 64 64 63 64 64 64 63 63 62 61 60 60 59 58 59 58 57 56 56 56 55 55 54 54 53 53 53 53 52 52 52 53 53 53 56 56 55 55 55 54 54
61 62 63 63 63 63 63 63 63 62 62 61 60 60 59 58 58 59 58 56 56 56 55 55 55 55 54 53 53 53 53 53 52 52 54 53 54 55 55 55 55 54 54
61 62 63 62 62 62 62 62 62 62 61 60 60 59 59 58 57 57 58 56 55 55 55 55 55 54 54 53 53 52 52 52 52 51 52 52 53 53 54 54 54 53 53
61 61 62 62 62 62 62 62 62 62 61 60 60 59 58 57 56 56 57 55 54 54 54 54 54 54 53 53 53 53 53 52 52 52 51 51 52 53 52 52 52 52 52
61 61 62 62 62 62 62 62 62 62 60 60 59 58 57 56 55 54 56 55 53 53 53 53 53 53 52 52 51 51 52 52 52 52 50 51 51 52 52 51 51 49 51
61 61 61 61 61 61 60 61 61 60 60 60 59 58 56 54 54 53 54 55 54 53 52 52 52 52 52 53 51 50 50 50 50 50 50 50 50 51 50 50 50 49 47
60 60 61 61 61 61 61 60 60 60 60 59 59 58 56 54 52 52 52 53 53 52 51 51 51 51 50 51 48 47 41 40 42 44 45 46 46 46 47 47 47 46 46
59 60 60 60 61 61 61 61 59 59 59 59 59 59 57 54 52 53 53 53 53 53 52 52 52 50 49 50 49 46 40 34 39 43 44 45 44 44 44 44 44 43 43
59 59 60 60 60 61 61 60 58 57 56 57 58 59 57 55 52 52 53 54 55 55 53 53 52 51 51 49 49 48 46 44 38 36 41 43 44 43 44 44 45 45 45
59 59 60 60 60 61 60 59 58 57 57 57 58 57 57 56 56 55 55 56 56 55 54 53 52 52 51 50 49 48 47 46 45 43 39 39 42 44 46 46 46 47 47
59 59 60 60 60 60 60 60 58 57 57 57 56 56 55 56 56 56 55 54 54 53 53 53 52 52 51 50 50 48 47 45 45 45 43 41 43 45 46 46 47 48 49
Wind_Speed
17 21 19 20 20 18 16 18 17 19 16 18 19 19 20 19 17 18 18 18 19 23 25 25 24 23 24 27 26 27 26 26 25 25 25 23 25 25 24 24 21 23 23
24 24 20 19 21 19 17 17 17 18 17 19 19 20 21 20 19 20 20 21 23 23 23 23 23 23 25 26 26 26 24 24 23 23 23 22 23 23 24 24 22 22 23
29 25 23 20 20 20 19 19 18 18 19 19 19 20 21 20 19 20 21 22 23 24 24 22 23 24 24 24 24 24 24 22 20 19 19 22 21 23 23 22 22 22 21
27 27 24 21 21 21 20 18 19 18 19 19 19 20 19 20 20 21 21 22 24 23 22 22 22 22 22 22 23 22 19 16 15 15 18 19 19 22 21 22 22 21 20
24 26 24 22 21 22 20 18 18 18 19 19 19 20 18 18 20 20 22 23 24 23 22 21 20 21 20 21 21 19 18 16 14 18 17 19 16 19 19 20 20 19 18
24 24 24 22 22 22 20 18 19 19 19 20 20 19 18 19 19 21 21 23 24 22 21 20 20 21 20 20 19 18 16 11 15 18 18 16 18 18 19 19 19 18 17
25 23 24 22 23 22 20 19 18 19 19 20 21 20 19 20 20 21 20 23 21 21 21 21 20 20 19 19 17 16 12 6 17 16 17 16 16 17 18 18 17 16 17
24 22 23 22 23 22 21 20 19 20 20 21 20 21 21 22 21 20 20 22 20 21 21 21 20 19 17 17 17 14 9 9 14 16 16 14 16 16 15 17 15 15 16
23 23 22 22 22 20 20 20 20 21 21 19 18 22 21 21 20 19 18 18 21 21 21 21 20 20 17 16 15 13 9 7 14 13 15 11 13 14 15 14 14 15 15
21 23 24 22 22 21 20 21 22 23 21 20 20 21 20 19 19 18 18 19 20 20 20 20 20 20 19 17 15 13 11 5 13 12 14 12 12 13 13 13 13 13 13
18 22 23 23 23 21 20 19 20 20 20 20 20 20 20 16 17 19 16 21 19 19 19 20 19 18 18 16 14 11 5 9 10 10 11 10 11 12 12 12 12 12 11
22 22 22 23 23 23 20 21 21 21 19 17 16 19 14 15 15 14 17 20 20 20 18 19 19 18 15 14 13 10 7 8 8 9 11 8 9 10 10 10 10 10 9
23 20 19 21 23 22 20 19 16 16 15 16 18 15 14 14 14 13 14 16 17 17 15 14 16 11 11 11 10 8 8 7 8 8 9 7 8 8 8 8 8 8 7
24 19 18 19 21 21 17 16 18 17 16 15 16 16 15 14 15 14 13 12 14 11 12 12 10 10 10 10 9 9 9 8 7 6 9 6 6 6 7 6 6 5 5
24 24 21 21 21 20 19 15 17 16 16 15 16 16 15 14 15 14 13 14 11 11 11 9 10 11 10 9 8 9 8 7 7 5 7 5 5 4 4 4 4 3 3
23 23 21 22 21 22 19 19 16 15 14 15 15 15 15 13 14 14 13 12 12 11 10 10 10 9 8 8 7 6 6 5 5 5 4 7 3 3 2 3 2 1 1
26 24 25 23 21 22 21 20 16 14 15 14 14 15 15 14 15 14 13 12 11 10 9 8 8 7 7 6 6 5 5 5 4 4 4 2 6 3 2 1 2 3 4
24 25 24 20 21 19 19 17 14 15 15 14 14 14 14 14 15 15 14 12 10 10 9 10 9 8 7 7 6 6 5 5 5 5 4 4 4 4 5 3 2 4 5
25 24 24 22 21 19 18 15 14 14 15 14 14 14 15 14 14 14 14 13 13 10 9 9 8 7 7 6 5 4 4 4 5 5 7 7 6 6 7 5 8 8 9
23 22 22 21 20 19 16 16 15 15 14 15 15 14 16 14 14 13 13 14 13 11 10 9 8 5 5 5 4 4 4 5 6 7 7 7 8 9 10 10 9 10 12
22 21 23 23 21 19 17 17 16 17 15 15 14 15 16 15 15 14 13 15 13 13 12 11 8 8 5 5 4 5 8 9 9 9 9 9 10 10 11 11 11 10 10
25 25 24 22 23 21 20 17 12 16 14 16 13 14 15 16 17 16 15 14 14 12 12 12 11 8 5 8 4 3 4 4 6 8 9 10 11 9 11 13 14 14 13
25 24 25 24 25 22 21 16 15 13 12 10 13 14 15 16 17 16 16 14 14 12 12 13 13 12 9 7 8 4 3 3 3 3 3 4 6 8 10 11 14 15 15
27 23 24 23 25 22 23 21 23 21 18 14 16 15 15 17 17 17 16 15 14 12 12 13 12 11 9 8 6 8 6 3 3 3 3 4 6 7 8 9 11 13 13
25 24 24 24 24 22 24 24 22 20 18 16 16 17 17 16 17 17 16 15 14 12 12 13 13 13 11 9 10 5 9 7 6 6 9 5 6 7 9 10 10 10 10
23 23 23 25 25 25 26 26 25 24 21 18 18 18 17 16 16 16 16 15 14 13 13 13 12 13 13 11 10 10 8 5 7 7 8 9 8 7 7 10 11 11 10
Wind_Direction
169 163 174 168 160 154 149 142 145 137 143 133 127 125 120 115 112 108 109 106 103 104 99 98 98 97 92 89 92 89 87 86 88 84 83 83 84 86 84 82 84 85 84
156 160 166 169 158 153 145 144 145 146 141 135 132 128 124 118 116 112 110 108 102 101 101 98 98 97 95 95 95 92 94 92 88 88 90 86 87 86 86 84 80 83 84
153 157 165 165 158 149 151 148 150 149 140 136 133 131 126 120 118 115 112 107 100 98 96 97 96 97 97 96 96 96 93 91 86 88 90 89 85 87 87 84 84 83 84
154 155 164 163 159 150 153 153 147 147 143 137 135 128 127 125 125 119 113 107 102 101 99 99 97 98 100 99 101 99 96 91 98 104 91 92 88 89 86 86 84 85 84
158 158 158 160 155 151 154 146 144 150 143 139 135 129 131 125 123 120 117 111 108 103 105 100 104 104 103 106 103 100 98 96 103 91 89 89 90 87 88 90 91 89 86
159 161 146 154 155 152 152 147 148 150 146 139 136 135 134 126 120 116 115 109 109 112 110 109 104 107 105 105 103 99 101 111 107 94 92 96 93 94 92 92 89 89 87
158 162 158 154 156 153 149 147 149 150 146 141 140 137 134 127 124 119 116 113 114 116 116 112 109 107 107 107 104 99 91 97 97 93 87 90 93 92 93 94 93 94 92
159 156 160 156 154 153 151 146 146 147 145 142 143 134 128 129 129 127 123 125 126 125 121 115 112 110 111 111 105 97 96 111 101 98 90 91 94 99 95 94 91 90 90
161 158 160 164 155 149 150 149 148 148 144 145 137 132 131 131 133 132 132 143 133 129 124 120 120 118 114 109 101 93 77 54 96 97 100 93 101 96 93 95 94 93 89
163 160 162 164 164 163 159 151 155 150 148 137 133 132 130 135 135 134 134 128 125 126 124 123 124 121 118 111 103 101 105 110 97 99 98 96 97 95 97 97 94 96 95
166 166 164 165 165 164 164 159 145 138 131 129 130 128 140 146 147 147 131 133 129 127 123 124 123 121 114 110 111 113 197 104 101 96 97 89 94 94 92 92 91 88 89
168 167 165 168 164 162 159 159 151 148 149 149 149 152 154 153 149 134 139 130 126 128 128 128 126 132 147 135 129 152 116 110 103 93 96 99 96 90 86 85 86 86 82
163 163 162 165 165 161 160 157 155 155 155 156 156 156 156 150 149 135 139 142 139 139 134 130 140 154 145 147 149 136 125 113 106 107 106 104 96 94 91 89 83 80 79
163 160 161 165 161 162 153 155 158 160 161 161 160 159 159 157 160 156 161 150 149 156 149 152 153 151 147 149 149 144 143 131 124 126 117 100 97 96 92 86 81 79 77
161 162 166 166 162 156 157 155 164 160 164 162 161 164 164 164 165 164 163 161 163 161 157 156 151 150 150 145 147 148 146 143 134 129 132 86 68 99 102 100 93 77 68
164 163 169 165 164 158 156 160 160 163 163 162 164 168 167 167 167 165 166 166 166 171 164 160 157 156 147 148 146 152 151 153 146 145 140 144 93 77 140 139 130 137 191
169 165 170 162 164 163 164 163 160 156 165 165 169 169 171 169 170 168 168 167 166 168 170 164 161 159 156 151 150 153 160 160 165 176 175 187 162 148 59 225 203 227 243
166 168 163 161 166 161 165 160 156 157 166 170 169 169 173 174 171 172 171 170 161 160 165 166 166 169 171 174 169 164 173 179 189 199 206 219 224 233 197 210 274 265 266
170 168 166 162 164 161 157 149 151 161 173 174 172 171 172 175 176 176 176 171 163 164 169 166 170 186 185 186 189 183 196 204 211 214 220 226 236 247 250 216 246 259 261
172 172 165 163 165 160 160 159 161 167 179 176 176 175 169 174 179 179 179 174 171 172 170 174 176 189 209 196 193 229 236 239 242 245 245 237 242 243 247 252 254 253 239
170 167 168 167 170 161 164 166 166 168 174 179 180 175 174 173 178 178 179 178 182 185 183 184 181 179 177 191 196 230 251 247 248 250 252 248 247 249 252 254 255 259 261
171 176 170 174 168 171 174 172 171 171 180 177 178 179 178 178 177 178 177 185 189 189 185 183 183 176 184 188 221 252 266 216 237 242 250 254 254 253 253 255 258 258 262
177 176 173 178 173 178 176 165 171 158 166 171 178 185 187 184 181 185 183 188 192 194 191 190 191 193 195 193 213 258 222 241 307 188 226 241 244 249 255 257 256 256 255
183 179 179 179 178 178 173 171 175 174 175 188 184 190 187 190 186 192 194 195 198 199 200 197 200 204 206 205 204 229 252 292 289 280 207 224 266 258 258 252 255 256 257
179 180 177 179 178 178 180 185 183 188 189 181 183 186 190 192 195 199 200 203 206 204 208 201 197 203 212 225 220 193 220 233 247 256 282 277 283 253 259 260 259 261 257
177 179 179 180 183 183 188 191 191 191 188 181 185 185 190 195 199 205 202 201 202 200 203 205 204 207 214 220 225 218 213 207 221 220 247 276 271 281 277 272 264 259 258